Location: Ceska republika
(50.0000°N, 15.0000°E)
Time: 14:23:26
(UTC+02:00)

ISS - Pass Details

Date: 07 October 2017
Orbit: 401 x 408 km, 51.6° (Epoch: 22 October)

Event Time Altitude Azimuth Distance (km) Brightness Sun altitude
Rises 20:30:09 0° 286° (WNW) 2,329 1.6 -20.7°
Reaches altitude 10° 20:32:14 10° 286° (WNW) 1,469 0.2 -21.0°
Enters shadow 20:35:04 62° 270° (W) 462 -3.4 -21.5°
